Dewpoint
10 12 16 19 26 26 30 30 25 22 24 26 28 29 33 36 39 41 41 38 39 41 43 45 46 47 46 44 41 40 38 35 33 30 27 25 24 23 23 23 23 24 24 24
14 12 16 16 17 15 25 28 28 32 29 26 28 32 34 34 38 41 42 42 43 44 45 46 46 46 43 41 39 37 34 30 28 26 24 23 22 22 24 24 24 23 23 25
8 11 15 10 22 25 25 28 28 27 27 29 28 28 31 34 37 41 42 41 42 43 44 43 42 41 39 38 37 34 29 26 24 23 21 21 21 22 23 22 22 23 23 24
8 14 1 8 14 16 17 25 27 29 30 30 30 29 30 35 39 42 41 40 40 41 40 39 39 39 38 37 34 32 29 25 22 20 20 20 21 21 21 21 22 23 23 23
10 13 12 10 20 21 22 23 25 26 29 30 30 31 31 39 41 42 41 39 40 39 37 36 36 35 34 32 31 29 26 23 19 19 19 20 20 21 21 22 22 22 22 22
12 10 10 13 24 25 23 20 25 26 26 23 30 24 25 41 42 42 39 38 35 34 33 30 32 32 31 31 30 27 23 19 19 20 20 20 21 21 21 22 22 21 21 22
7 7 11 16 20 25 19 19 23 27 27 26 27 26 34 40 39 37 35 32 30 30 30 26 26 28 28 26 22 20 20 20 20 20 21 21 21 22 22 21 21 22 22 23
10 7 4 20 21 21 22 20 24 25 28 28 33 38 38 35 31 29 28 29 27 26 28 27 25 25 23 21 20 20 21 21 20 20 19 21 22 22 21 21 22 22 22 23
17 11 19 21 18 18 18 18 21 23 26 34 34 32 30 27 26 26 25 24 23 22 23 27 29 29 27 24 22 21 20 19 19 20 22 22 22 22 22 22 21 21 22 22
16 16 18 19 16 15 16 18 20 23 28 28 26 26 25 23 22 20 20 19 19 19 19 20 22 23 21 20 19 19 19 20 21 23 23 22 22 23 22 21 21 22 21 21
14 16 16 17 17 14 16 18 19 20 23 24 22 21 19 19 18 19 19 19 19 19 20 21 21 20 19 19 20 21 22 23 24 23 23 24 23 23 21 22 23 22 22 22
11 17 15 16 14 15 15 16 17 17 18 19 19 18 17 17 17 18 18 20 22 23 24 24 20 19 22 26 26 24 23 22 22 23 24 24 23 23 26 26 26 25 25 24
18 21 21 15 16 15 14 15 15 15 16 16 16 16 17 17 19 26 25 26 26 25 26 25 23 23 24 25 25 24 22 22 24 23 21 20 20 21 21 23 25 25 24 23
22 19 17 16 17 16 16 16 19 17 18 18 19 23 25 26 26 25 25 25 23 22 21 23 23 24 26 26 25 25 25 26 23 22 22 21 19 19 18 17 17 18 22 22
24 24 20 19 19 18 19 21 22 24 24 25 26 25 25 24 23 24 25 24 24 23 23 23 23 24 26 26 25 24 23 24 23 23 21 20 20 20 20 20 19 18 18 19
23 23 24 23 23 24 24 24 23 23 24 24 24 24 24 24 24 24 24 23 21 22 22 22 23 24 24 23 23 24 24 25 23 21 19 20 20 20 21 20 19 18 18 18
20 19 21 21 22 22 22 24 23 23 23 23 23 24 23 23 22 22 22 22 23 23 23 23 22 22 23 25 25 23 22 21 23 19 21 21 21 21 20 19 19 18 18 19
23 23 23 23 22 22 22 22 20 20 20 20 20 20 21 20 20 21 22 22 22 23 23 21 21 22 23 23 22 22 21 20 20 22 22 20 20 20 19 19 18 17 18 18
22 21 22 23 22 21 21 21 21 21 21 21 20 19 19 19 19 19 20 20 21 21 23 23 24 23 23 23 23 21 20 21 22 23 22 20 18 18 18 17 17 17 17 18
20 21 21 21 21 21 21 21 20 19 19 17 17 17 17 17 18 18 19 20 21 23 23 23 23 23 23 23 23 21 21 21 20 19 18 17 17 16 17 18 17 16 16 17
17 16 16 15 16 16 16 17 17 17 17 17 17 17 16 17 17 18 19 19 21 22 23 23 24 24 23 22 22 22 22 21 19 17 16 15 15 15 16 15 15 15 15 14
14 14 14 14 14 14 15 15 15 15 15 15 16 16 16 17 17 18 19 19 22 25 24 23 23 25 23 24 22 21 19 18 16 14 13 13 13 13 12 11 12 14 12 11
13 14 14 13 13 14 14 14 15 15 15 15 15 15 16 16 16 16 17 23 23 24 23 23 25 27 25 22 21 19 17 14 15 14 12 11 12 10 10 11 12 11 11 11
12 13 13 13 13 12 12 13 14 15 15 15 16 16 16 14 16 18 20 21 24 23 22 23 28 25 25 19 17 16 14 14 14 16 15 17 10 11 11 8 10 11 10 12
12 12 12 12 12 13 13 13 13 13 14 15 15 16 16 16 15 18 17 22 25 21 20 25 25 23 19 16 15 14 13 12 8 10 11 10 10 11 13 10 11 13 14 12
10 10 11 12 12 13 15 13 11 12 12 12 14 15 16 17 18 17 16 20 18 22 20 25 20 17 15 14 12 12 11 11 13 16 12 12 11 13 9 13 13 10 9 8
8 13 9 10 12 13 14 15 11 11 13 12 12 16 16 17 17 15 18 15 16 17 18 20 19 17 11 13 13 12 12 12 15 13 10 11 13 10 13 12 11 10 9 8
Lifted_Index
5 5 4 3 2 2 1 1 2 2 2 2 2 2 2 2 2 2 3 3 3 3 2 3 3 3 4 4 4 4 4 4 4 4 4 4 5 8 10 12 13 14 15 16
4 4 4 3 2 2 2 2 2 2 2 2 2 2 2 2 2 2 3 3 3 3 3 3 4 4 4 4 4 4 4 4 4 4 4 5 6 8 11 12 13 14 15 16
3 4 3 2 2 2 2 2 2 2 2 2 2 2 2 2 2 2 3 4 4 4 4 4 4 5 5 5 4 4 5 5 5 5 5 6 8 9 11 12 13 15 16 17
3 3 2 2 2 2 2 2 2 2 2 2 2 2 3 3 3 3 3 4 4 4 4 4 5 5 5 5 5 5 5 5 5 6 6 7 9 10 12 13 14 15 16 17
4 3 2 2 2 2 1 1 2 2 2 2 2 2 3 3 3 3 3 4 4 5 5 5 5 5 5 5 5 5 6 6 6 7 8 8 10 11 12 13 15 16 17 17
4 3 2 2 2 2 1 1 2 2 2 2 2 2 3 3 3 3 4 4 4 5 5 6 6 6 6 5 5 5 6 7 7 8 9 10 11 12 13 14 16 16 17 17
3 3 3 3 4 3 2 2 2 2 2 2 2 2 3 4 4 4 4 4 4 5 6 6 6 6 6 6 6 6 7 8 9 10 11 11 12 14 15 16 16 17 17 17
4 4 4 4 5 4 3 3 3 3 2 2 2 3 3 4 4 4 4 4 4 5 6 7 7 6 5 6 7 7 8 10 11 12 13 14 14 15 16 16 16 16 17 17
5 5 5 5 5 5 4 4 4 3 3 3 3 3 3 4 4 4 4 4 4 5 5 6 6 6 5 6 7 9 10 11 12 13 15 15 16 16 16 16 16 16 16 16
4 5 6 5 5 5 5 4 4 4 3 3 3 3 4 4 4 4 4 4 5 5 5 6 7 7 7 8 9 10 11 12 13 15 15 16 16 16 16 16 16 16 16 16
4 5 6 6 5 5 4 4 4 4 4 4 4 4 4 4 4 4 5 5 5 6 6 7 8 9 10 12 12 13 13 14 15 15 16 16 17 17 17 17 17 17 17 17
4 6 7 6 6 6 5 4 5 5 5 5 5 4 4 4 5 5 5 6 6 7 8 9 10 11 13 15 15 15 15 15 15 16 16 16 16 16 17 17 18 18 18 18
7 8 8 7 7 7 6 6 7 7 7 6 6 6 5 5 5 6 7 8 8 9 10 11 11 13 15 16 16 16 15 15 16 16 16 16 16 16 16 17 18 18 19 19
10 9 9 9 9 9 9 8 8 8 8 8 8 8 7 7 7 8 9 10 11 12 12 13 14 15 16 16 16 16 16 16 16 16 16 16 16 16 16 16 17 18 18 19
11 11 11 10 10 11 11 10 8 8 9 9 10 10 10 10 10 11 12 13 14 14 14 15 15 15 16 16 16 16 16 16 16 16 17 17 16 16 16 16 16 17 18 18
11 11 11 11 11 11 11 10 9 9 10 11 11 12 12 12 13 14 14 15 15 15 15 15 15 15 16 16 16 16 16 16 16 16 16 16 16 16 16 17 17 17 18 19
11 11 11 11 11 11 11 11 11 11 12 12 13 13 14 14 14 14 15 15 15 14 15 15 15 16 16 17 16 16 16 16 16 16 16 16 17 17 17 17 17 18 19 19
12 12 12 12 12 12 12 12 12 13 13 13 14 14 14 14 14 14 14 14 14 15 15 16 16 17 17 17 17 16 16 16 16 16 16 17 17 17 17 18 18 18 19 19
13 13 13 13 12 12 12 12 12 12 13 13 13 13 13 14 14 14 14 14 14 15 16 16 17 17 17 17 17 17 16 16 16 17 17 17 17 18 18 18 18 18 18 18
12 12 12 11 11 12 12 12 12 12 12 13 13 13 13 14 15 15 15 15 15 16 16 17 17 17 17 17 17 17 17 17 17 17 17 18 18 18 18 18 18 18 18 18
12 11 11 11 11 11 12 12 13 13 13 13 14 14 14 15 15 16 15 15 16 16 17 17 17 17 17 17 17 17 17 17 17 17 18 18 18 18 18 18 18 18 17 17
12 12 12 12 12 12 13 14 14 14 14 14 14 14 15 15 15 15 15 16 16 17 17 17 17 18 18 17 17 17 17 17 17 17 18 18 18 17 17 17 17 17 16 16
12 12 12 12 13 13 13 14 14 14 14 14 14 14 14 15 15 15 15 16 17 17 17 18 18 18 18 17 17 17 17 17 17 17 17 17 17 17 16 16 16 16 16 15
12 12 12 12 12 13 13 13 13 13 13 14 14 14 14 15 15 16 16 17 17 17 18 18 18 18 17 17 17 17 17 17 17 17 17 17 16 16 15 15 15 15 15 15
12 12 12 12 12 12 12 12 12 13 13 13 14 15 15 15 16 16 17 17 17 17 17 17 17 17 17 17 17 16 16 17 17 17 16 16 15 14 14 14 15 15 15 15
12 12 12 12 12 12 12 12 12 13 13 13 14 15 15 16 16 16 17 17 17 17 17 17 17 17 17 17 17 17 16 16 16 15 15 14 14 13 14 14 14 15 15 15
12 12 12 12 12 12 12 12 12 12 13 13 14 15 16 16 16 16 16 16 16 17 17 17 17 17 17 17 17 17 16 16 15 14 14 13 13 13 14 14 14 15 15 15